| time (UTC) | temp F | wind direction | speed MPH | gust MPH | rain 1hr in | rain 24hr in | rain mn in | humidity % | barometer mb |
| 20260901211819 | 61 | 210 | 7.0 | 0.0 | 0.00 | 0.00 | 0.00 | 63 | |
| 20260901202022 | 63 | 300 | 7.0 | 0.0 | 0.00 | 0.00 | 0.00 | 59 | |
| 20260901192023 | 64 | 320 | 7.0 | 0.0 | 0.00 | 0.00 | 0.00 | 55 | |
| 20260901181818 | 66 | 320 | 5.0 | 0.0 | 0.00 | 0.00 | 0.00 | 48 | |
| 20260901172031 | 70 | 280 | 7.0 | 0.0 | 0.00 | 0.00 | 0.00 | 43 | |
| 20260901162121 | 72 | 280 | 12.0 | 0.0 | 0.00 | 0.00 | 0.00 | 37 | |
| 20260901151817 | 72 | 290 | 12.0 | 0.0 | 0.00 | 0.00 | 0.00 | 40 | |
| 20260901142029 | 73 | 300 | 12.0 | 22.0 | 0.00 | 0.00 | 0.00 | 40 | |
| 20260901131920 | 72 | 290 | 9.0 | 0.0 | 0.00 | 0.00 | 0.00 | 43 | |
| 20260901121818 | 72 | 280 | 12.0 | 0.0 | 0.00 | 0.00 | 0.00 | 46 | |
| 20260901111919 | 68 | 270 | 14.0 | 0.0 | 0.00 | 0.00 | 0.00 | 49 | |
| 20260901102119 | 68 | 290 | 14.0 | 0.0 | 0.00 | 0.00 | 0.00 | 52 | |
| 20260901091818 | 68 | 300 | 12.0 | 0.0 | 0.00 | 0.00 | 0.00 | 60 | |
| 20260901082031 | 64 | 270 | 7.0 | 0.0 | 0.00 | 0.00 | 0.00 | 67 | |
| 20260901072031 | 63 | 260 | 7.0 | 0.0 | 0.00 | 0.00 | 0.00 | 72 | |
| 20260901061818 | 59 | 240 | 7.0 | 0.0 | 0.00 | 0.00 | 0.00 | 77 | |
| 20260901051918 | 57 | 300 | 2.0 | 0.0 | 0.00 | 0.00 | 0.00 | 76 | |
| 20260901042118 | 57 | 250 | 7.0 | 0.0 | 0.00 | 0.00 | 0.00 | 76 | |
| 20260901031818 | 59 | 250 | 7.0 | 0.0 | 0.00 | 0.00 | 0.00 | 72 | |
| 20260901022029 | 61 | 260 | 7.0 | 0.0 | 0.00 | 0.00 | 0.00 | 67 | |
| 20260901012031 | 61 | 260 | 5.0 | 0.0 | 0.00 | 0.00 | 0.00 | 67 | |
| 20260901001818 | 61 | 280 | 9.0 | 0.0 | 0.00 | 0.00 | 0.00 | 67 | |
| 20260831231933 | 63 | 280 | 7.0 | 0.0 | 0.00 | 0.00 | 0.00 | 67 | |
| 20260831222121 | 64 | 250 | 9.0 | 0.0 | 0.00 | 0.00 | 0.00 | 63 |